"Pseudo-MPEC" for P22hQjQ

Created 2025 Dec 8 6:35:11 UT using Find_Orb

Click here for an explanation of pseudo-MPECs

 
 Astrometry: 
     P22hQjQ* C2025 11 26.42658903 59 37.107-11 11 52.12   ~BQD5 21.87wXNEOCPF52
     P22hQjQ  C2025 11 26.43956403 59 36.663-11 11 36.56   ~BQD5 21.88wXNEOCPF52
     P22hQjQ  C2025 11 26.45258703 59 36.210-11 11 20.87   ~BQD5 21.85wXNEOCPF52
     P22hQjQ  C2025 11 26.46574003 59 35.752-11 11 04.85   ~BQD5 22.01wXNEOCPF52
     P22hQjQ  C2025 11 26.57780503 59 31.976-11 08 48.98   ~BQHo 21.43GVNEOCPF51
     P22hQjQ  C2025 11 26.57845503 59 31.957-11 08 48.20   ~BQHo 21.61GVNEOCPF51
     P22hQjQ KC2025 11 27.26766903 59 12.894-10 54 50.47   ~BR6o 22.02GVNEOCPV06
     P22hQjQ KC2025 11 27.26990303 59 12.779-10 54 47.48   ~BR6o       VNEOCPV06

Station data:
(F51) Pan-STARRS 1, Haleakala  (N20.707234 W156.255910)  US/Hawaii.
   Observers J. Herman, T. Lowe, P. Minguez, A. Schultz, I. Smith. Measurers
   K. Chambers, T. de Boer, J. Fairlamb, H. Gao, M. Huber, C.-C. Lin, E.
   Magnier, Y. Ramanjooloo, R. Wainscoat, R. Weryk. 1.8-m Ritchey-Chrétien +
   CCD.
(F52) Pan-STARRS 2, Haleakala  (N20.707382 W156.255910)  US/Hawaii.
   Observers J. Herman, T. Lowe, P. Minguez, A. Schultz, I. Smith. Measurers
   K. Chambers, T. de Boer, J. Fairlamb, H. Gao, M. Huber, C.-C. Lin, E.
   Magnier, Y. Ramanjooloo, R. Wainscoat, R. Weryk. 1.8-m Ritchey-Chrétien +
   CCD.
(V06) Catalina Sky Survey-Kuiper  (N32.416871 W110.732550)  US/Arizona.
   Measurers T. Beuden, V. F. Carvajal, D. Fay, J. B. Fazekas, D. C. Fuls, A.
   R. Gibbs, A. D. Grauer, H. Gröller, J. K. Hogan, R. A. Kowalski, S. M.
   Larson, G. J. Leonard, D. Rankin, R. L. Seaman, F. C. Shelly, K. W.
   Wierzchoś. 1.55-m reflector + CCD.

Orbital elements:  P22hQjQ
   Perihelion 2025 Nov 8.843592 +/- 24 TT = 20:14:46.3 (JD 2460988.343592)
Epoch 2025 Nov 27.0 TT = JDT 2461006.5   Earth MOID: 0.5999      AutoNEOCP
M   3.403628434 +/- 3.7             (J2000 ecliptic)
n   0.187461555 +/- 0.0336          Peri.  298.251480 +/- 20
a   3.023624838 +/- 0.361           Node   110.426647 +/- 4.6
e   0.49640679 +/- 0.0624           Incl.   15.280696 +/- 1.1
P   5.25765                H 21.02  G  0.15   U 10.5  SR
q 1.522676929 +/- 0.0324    Q 4.524572747 +/- 1.17
From 8 observations 2025 Nov. 26-27 (20.2 hr); mean residual 0".16
Residuals in arcseconds: 
251126 F52  .15-  .09+    251126 F52  .03+  .16+    251127 V06  .21+  .05+    
251126 F52  .00   .03+    251126 F51  .05+  .17-    251127 V06  .36-  .29+    
251126 F52  .03+  .02+    251126 F51  .08+  .18-    

Ephemerides (geocentric):
Date (UTC) HH   RA             Dec           delta  r     elong  mag " sig PA
---- --------  ------------   ------------  ------ ------ -----  --- --------
2025 12 08 07  03 54 46.855   -06 36 57.56  .62909 1.5497 146.7 22.0  643  13
2025 12 08 08  03 54 46.121   -06 35 53.17  .62922 1.5498 146.7 22.0  647  13
2025 12 08 09  03 54 45.389   -06 34 48.74  .62935 1.5499 146.7 22.0  652  13
2025 12 08 10  03 54 44.659   -06 33 44.27  .62948 1.5500 146.6 22.0  657  13
2025 12 08 11  03 54 43.932   -06 32 39.76  .62961 1.5500 146.6 22.0  662  13
2025 12 08 12  03 54 43.207   -06 31 35.23  .62974 1.5501 146.6 22.0  667  13
2025 12 08 13  03 54 42.485   -06 30 30.65  .62987 1.5502 146.6 22.0  672  13
2025 12 08 14  03 54 41.766   -06 29 26.04  .63001 1.5503 146.6 22.0  677  13
2025 12 08 15  03 54 41.049   -06 28 21.40  .63014 1.5503 146.6 22.0  682  13
2025 12 08 16  03 54 40.335   -06 27 16.72  .63027 1.5504 146.6 22.0  687  13
2025 12 08 17  03 54 39.623   -06 26 12.01  .63040 1.5505 146.6 22.0  692  13
2025 12 08 18  03 54 38.914   -06 25 07.26  .63053 1.5506 146.6 22.0  697  13
2025 12 08 19  03 54 38.207   -06 24 02.47  .63067 1.5507 146.5 22.0  702  13
2025 12 08 20  03 54 37.503   -06 22 57.66  .63080 1.5507 146.5 22.0  707  13
2025 12 08 21  03 54 36.802   -06 21 52.80  .63093 1.5508 146.5 22.0  712  13
2025 12 08 22  03 54 36.103   -06 20 47.92  .63107 1.5509 146.5 22.0  717  13
2025 12 08 23  03 54 35.407   -06 19 43.00  .63120 1.5510 146.5 22.0  722  13
2025 12 09 00  03 54 34.713   -06 18 38.04  .63134 1.5510 146.5 22.0  728  13
2025 12 09 01  03 54 34.022   -06 17 33.05  .63147 1.5511 146.5 22.0  733  13
2025 12 09 02  03 54 33.334   -06 16 28.03  .63161 1.5512 146.5 22.0  738  13
2025 12 09 03  03 54 32.648   -06 15 22.98  .63174 1.5513 146.5 22.0  743  13
2025 12 09 04  03 54 31.965   -06 14 17.89  .63188 1.5513 146.4 22.0  748  13
2025 12 09 05  03 54 31.285   -06 13 12.76  .63201 1.5514 146.4 22.0  754  13
2025 12 09 06  03 54 30.607   -06 12 07.60  .63215 1.5515 146.4 22.0  759  13
2025 12 09 07  03 54 29.932   -06 11 02.41  .63229 1.5516 146.4 22.0  764  13
2025 12 09 08  03 54 29.259   -06 09 57.19  .63242 1.5517 146.4 22.0  769  13
2025 12 09 09  03 54 28.589   -06 08 51.93  .63256 1.5517 146.4 22.0  775  13
2025 12 09 10  03 54 27.922   -06 07 46.64  .63270 1.5518 146.4 22.0  780  13
2025 12 09 11  03 54 27.257   -06 06 41.32  .63284 1.5519 146.4 22.0  786  13
2025 12 09 12  03 54 26.595   -06 05 35.96  .63297 1.5520 146.3 22.0  791  13
2025 12 09 13  03 54 25.936   -06 04 30.58  .63311 1.5520 146.3 22.0  796  13
2025 12 09 14  03 54 25.279   -06 03 25.16  .63325 1.5521 146.3 22.0  802  13
2025 12 09 15  03 54 24.625   -06 02 19.70  .63339 1.5522 146.3 22.0  807  13
2025 12 09 16  03 54 23.974   -06 01 14.22  .63353 1.5523 146.3 22.0  813  13
2025 12 09 17  03 54 23.326   -06 00 08.70  .63367 1.5524 146.3 22.0  818  13
2025 12 09 18  03 54 22.680   -05 59 03.15  .63381 1.5524 146.3 22.0  824  13
2025 12 09 19  03 54 22.037   -05 57 57.56  .63395 1.5525 146.3 22.0  829  13
2025 12 09 20  03 54 21.396   -05 56 51.95  .63409 1.5526 146.2 22.0  835  13
2025 12 09 21  03 54 20.758   -05 55 46.30  .63423 1.5527 146.2 22.0  840  13
2025 12 09 22  03 54 20.123   -05 54 40.62  .63437 1.5528 146.2 22.0  846  13
2025 12 09 23  03 54 19.491   -05 53 34.91  .63451 1.5528 146.2 22.0  851  13
2025 12 10 00  03 54 18.862   -05 52 29.17  .63466 1.5529 146.2 22.0  857  13
2025 12 10 01  03 54 18.235   -05 51 23.40  .63480 1.5530 146.2 22.0  863  13
2025 12 10 02  03 54 17.611   -05 50 17.60  .63494 1.5531 146.2 22.0  868  13
2025 12 10 03  03 54 16.989   -05 49 11.76  .63508 1.5532 146.2 22.0  874  13
2025 12 10 04  03 54 16.371   -05 48 05.89  .63523 1.5532 146.2 22.0  880  13
2025 12 10 05  03 54 15.755   -05 46 59.99  .63537 1.5533 146.1 22.0  885  13
2025 12 10 06  03 54 15.142   -05 45 54.07  .63551 1.5534 146.1 22.0  891  13